When you browse on this site, cookies collect data to enhance your experience and personalize the content and advertising you see.
Visit our Privacy Policy to learn more. By continuing to use the site, you agree to this use of cookies and data.
  • En España
  • Lista de países
  • Para 7 días
  • Temperatura del agua
  • El tiempo en el mapa
  • Informadores
  • user-avatar
    Iniciar sesión

    Tiempo cada hora York

    Hoy, 13 Diciembre, Viernes

    Tiempo Temperatura Precipitaciones Viento Presión Humedad
    00:00 +4°C° 0 mm 3 mps 724 mmHg 93%
    01:00 +4°C° 0 mm 3 mps 724 mmHg 93%
    02:00 +3°C° 0 mm 3 mps 725 mmHg 92%
    03:00 +3°C° 0 mm 3 mps 725 mmHg 91%
    04:00 +3°C° 0 mm 3 mps 725 mmHg 90%
    05:00 +3°C° 0 mm 4 mps 726 mmHg 89%
    06:00 +3°C° 0 mm 4 mps 726 mmHg 88%
    07:00 +3°C° 0 mm 4 mps 727 mmHg 88%
    08:00 +3°C° 0 mm 4 mps 728 mmHg 88%
    09:00 +4°C° 0 mm 4 mps 728 mmHg 88%
    10:00 +5°C° 0 mm 5 mps 729 mmHg 84%
    11:00 +5°C° 0 mm 5 mps 729 mmHg 81%
    12:00 +5°C° 0 mm 6 mps 730 mmHg 77%
    13:00 +5°C° 0 mm 6 mps 730 mmHg 79%
    14:00 +6°C° 0 mm 5 mps 730 mmHg 80%
    15:00 +5°C° 0 mm 4 mps 730 mmHg 81%
    16:00 +5°C° 0 mm 5 mps 731 mmHg 81%
    17:00 +6°C° 0 mm 5 mps 731 mmHg 81%
    18:00 +5°C° 0 mm 6 mps 731 mmHg 81%
    19:00 +4°C° 0 mm 6 mps 731 mmHg 80%
    20:00 +4°C° 0 mm 6 mps 732 mmHg 80%
    21:00 +4°C° 0 mm 6 mps 732 mmHg 79%
    22:00 +3°C° 0 mm 5 mps 732 mmHg 79%
    23:00 +3°C° 0 mm 5 mps 732 mmHg 79%

    Mañana, 14 Diciembre, Sábado

    Tiempo Temperatura Precipitaciones Viento Presión Humedad
    00:00 +3°C° 0 mm 4 mps 732 mmHg 79%
    01:00 +2°C° 0 mm 5 mps 731 mmHg 82%
    02:00 +2°C° 0 mm 5 mps 731 mmHg 84%
    03:00 +2°C° 0 mm 5 mps 731 mmHg 86%
    04:00 +2°C° 0.8 mm 7 mps 732 mmHg 84%
    05:00 +1°C° 0.8 mm 8 mps 732 mmHg 82%
    06:00 +1°C° 0.8 mm 9 mps 732 mmHg 80%
    07:00 +1°C° 0 mm 9 mps 733 mmHg 75%
    08:00 +1°C° 0 mm 8 mps 733 mmHg 71%
    09:00 0°C° 0 mm 8 mps 734 mmHg 67%
    10:00 +1°C° 0.1 mm 8 mps 734 mmHg 64%
    11:00 +1°C° 0.1 mm 9 mps 735 mmHg 62%
    12:00 +2°C° 0.1 mm 10 mps 735 mmHg 60%
    13:00 +1°C° 0.1 mm 9 mps 736 mmHg 60%
    14:00 +1°C° 0.1 mm 9 mps 736 mmHg 61%
    15:00 +1°C° 0.1 mm 8 mps 737 mmHg 61%
    16:00 +2°C° 0 mm 7 mps 737 mmHg 62%
    17:00 +1°C° 0 mm 6 mps 737 mmHg 63%
    18:00 +1°C° 0 mm 6 mps 737 mmHg 65%
    19:00 0°C° 0.7 mm 5 mps 736 mmHg 75%
    20:00 0°C° 0.7 mm 5 mps 735 mmHg 85%
    21:00 0°C° 0.7 mm 4 mps 735 mmHg 96%
    22:00 -1°C° 0.7 mm 6 mps 734 mmHg 92%
    23:00 0°C° 0.7 mm 7 mps 734 mmHg 89%

    Pasado mañana, 15 Diciembre, Domingo

    Tiempo Temperatura Precipitaciones Viento Presión Humedad
    00:00 0°C° 0.7 mm 8 mps 733 mmHg 85%
    01:00 0°C° 0.2 mm 8 mps 734 mmHg 86%
    02:00 0°C° 0.2 mm 7 mps 734 mmHg 87%
    03:00 -1°C° 0.2 mm 6 mps 735 mmHg 88%
    04:00 -1°C° 0 mm 6 mps 737 mmHg 85%
    05:00 0°C° 0 mm 5 mps 738 mmHg 83%
    06:00 0°C° 0 mm 5 mps 739 mmHg 81%
    07:00 0°C° 0 mm 5 mps 740 mmHg 80%
    08:00 0°C° 0 mm 5 mps 741 mmHg 79%
    09:00 0°C° 0 mm 5 mps 742 mmHg 78%
    10:00 0°C° 0.2 mm 5 mps 742 mmHg 80%
    11:00 +1°C° 0.2 mm 5 mps 742 mmHg 82%
    12:00 +2°C° 0.2 mm 6 mps 742 mmHg 84%
    13:00 +2°C° 0 mm 6 mps 742 mmHg 83%
    14:00 +2°C° 0 mm 5 mps 742 mmHg 81%
    15:00 +2°C° 0 mm 5 mps 742 mmHg 80%
    16:00 +2°C° 0 mm 5 mps 742 mmHg 81%
    17:00 +2°C° 0 mm 5 mps 742 mmHg 82%
    18:00 +3°C° 0 mm 4 mps 742 mmHg 83%
    19:00 +1°C° 0 mm 4 mps 743 mmHg 86%
    20:00 +1°C° 0 mm 4 mps 743 mmHg 88%
    21:00 +1°C° 0 mm 4 mps 743 mmHg 90%
    22:00 +1°C° 0 mm 4 mps 743 mmHg 89%
    23:00 +1°C° 0 mm 4 mps 743 mmHg 88%

    16 Diciembre, Lunes

    Tiempo Temperatura Precipitaciones Viento Presión Humedad
    00:00 +1°C° 0 mm 4 mps 743 mmHg 87%
    01:00 +1°C° 0 mm 5 mps 743 mmHg 86%
    02:00 +1°C° 0 mm 5 mps 743 mmHg 86%
    03:00 +1°C° 0 mm 5 mps 743 mmHg 85%
    04:00 +1°C° 0 mm 5 mps 743 mmHg 85%
    05:00 +2°C° 0 mm 6 mps 743 mmHg 84%
    06:00 +2°C° 0 mm 6 mps 742 mmHg 84%
    07:00 +2°C° 0 mm 6 mps 743 mmHg 83%
    08:00 +2°C° 0 mm 6 mps 743 mmHg 82%
    09:00 +2°C° 0 mm 6 mps 743 mmHg 82%
    10:00 +3°C° 0 mm 6 mps 743 mmHg 79%
    11:00 +4°C° 0 mm 6 mps 744 mmHg 76%
    12:00 +4°C° 0 mm 6 mps 744 mmHg 73%
    13:00 +4°C° 0 mm 6 mps 745 mmHg 75%
    14:00 +5°C° 0 mm 5 mps 745 mmHg 76%
    15:00 +3°C° 0 mm 5 mps 745 mmHg 78%
    16:00 +4°C° 0 mm 4 mps 746 mmHg 80%
    17:00 +3°C° 0 mm 4 mps 747 mmHg 81%
    18:00 +1°C° 0 mm 4 mps 747 mmHg 83%
    19:00 +1°C° 0 mm 4 mps 748 mmHg 84%
    20:00 +2°C° 0 mm 3 mps 748 mmHg 84%
    21:00 +1°C° 0 mm 3 mps 749 mmHg 84%
    22:00 +1°C° 0 mm 3 mps 749 mmHg 84%
    23:00 +1°C° 0 mm 3 mps 750 mmHg 84%

    17 Diciembre, Martes

    Tiempo Temperatura Precipitaciones Viento Presión Humedad
    00:00 +1°C° 0 mm 3 mps 750 mmHg 84%
    01:00 +2°C° 0 mm 2 mps 750 mmHg 85%
    02:00 +2°C° 0 mm 2 mps 750 mmHg 86%
    03:00 +1°C° 0 mm 2 mps 750 mmHg 87%
    04:00 +1°C° 0 mm 2 mps 751 mmHg 87%
    05:00 +1°C° 0 mm 2 mps 751 mmHg 88%
    06:00 +1°C° 0 mm 2 mps 751 mmHg 88%
    07:00 +1°C° 0 mm 2 mps 752 mmHg 88%
    08:00 +2°C° 0 mm 1 mps 752 mmHg 88%
    09:00 +2°C° 0 mm 1 mps 752 mmHg 87%
    10:00 +3°C° 0 mm 1 mps 752 mmHg 85%
    11:00 +4°C° 0 mm 1 mps 753 mmHg 82%
    12:00 +5°C° 0 mm 1 mps 753 mmHg 80%
    13:00 +4°C° 0 mm 1 mps 753 mmHg 80%
    14:00 +4°C° 0 mm 1 mps 753 mmHg 81%
    15:00 +4°C° 0 mm 1 mps 753 mmHg 82%
    16:00 +3°C° 0 mm 1 mps 753 mmHg 82%
    17:00 +3°C° 0 mm 1 mps 753 mmHg 83%
    18:00 +2°C° 0 mm 1 mps 754 mmHg 84%
    19:00 +2°C° 0 mm 1 mps 754 mmHg 85%
    20:00 +2°C° 0 mm 1 mps 754 mmHg 85%
    21:00 +2°C° 0 mm 1 mps 754 mmHg 86%
    22:00 +2°C° 0 mm 1 mps 755 mmHg 86%
    23:00 +2°C° 0 mm 1 mps 755 mmHg 87%

    18 Diciembre, Miércoles

    Tiempo Temperatura Precipitaciones Viento Presión Humedad
    00:00 +2°C° 0 mm 1 mps 755 mmHg 88%
    01:00 +2°C° 0 mm 1 mps 755 mmHg 89%
    02:00 +2°C° 0 mm 1 mps 755 mmHg 89%
    03:00 +2°C° 0 mm 1 mps 755 mmHg 90%
    04:00 +2°C° 0 mm 1 mps 755 mmHg 90%
    05:00 +2°C° 0 mm 1 mps 756 mmHg 91%
    06:00 +2°C° 0 mm 1 mps 756 mmHg 91%
    07:00 +2°C° 0 mm 1 mps 756 mmHg 91%
    08:00 +2°C° 0 mm 1 mps 757 mmHg 90%
    09:00 +2°C° 0 mm 1 mps 757 mmHg 90%
    10:00 +3°C° 0 mm 1 mps 757 mmHg 86%
    11:00 +3°C° 0 mm 2 mps 758 mmHg 82%
    12:00 +3°C° 0 mm 2 mps 758 mmHg 79%
    13:00 +3°C° 0 mm 2 mps 758 mmHg 80%
    14:00 +3°C° 0 mm 2 mps 758 mmHg 82%
    15:00 +2°C° 0 mm 2 mps 758 mmHg 84%
    16:00 +2°C° 0 mm 2 mps 757 mmHg 86%
    17:00 +1°C° 0 mm 2 mps 757 mmHg 88%
    18:00 -1°C° 0 mm 2 mps 757 mmHg 90%
    19:00 -1°C° 0 mm 2 mps 757 mmHg 90%
    20:00 -1°C° 0 mm 2 mps 757 mmHg 90%
    21:00 -1°C° 0 mm 2 mps 758 mmHg 91%
    22:00 -1°C° 0 mm 2 mps 757 mmHg 91%
    23:00 -1°C° 0 mm 2 mps 757 mmHg 91%
    Mostrar más